DAL296 KATL-LGAV

Flight info

Callsign DAL296
Flight time N/A
Altitude 35000
Route SMKEY2 BOBBD Q71 PSB J49 ALB DCT EBONY N567B TUDEP/M081F370 DCT 52N050W 54N040W 55N030W 55N020W DCT DOGAL DCT BEXET/N0473F370 DCT LESLU DCT LIZAD/N0468F390 DCT JSY DCT TURDU DCT TADUP DCT TEPRI UN491 POGZI DCT GELTA DCT LUVAL DCT SHARA DCT DEVDI DCT RIPUS DCT RESIA DCT LABIN DCT SPL DCT VAKSU DCT KOFER DCT PINDO DCT KOGIS DCT SKP UM749 ROPOX
Aircraft A339/H-SADE1E2E3GHIJ3J5M1P2RWXY/LB2D1

Departure

Time 2026-05-08 02:48
Airport Hartsfield Jackson Atlanta International Airport (KATL)

Arrival

Time N/A
Airport Athens Eleftherios Venizelos International Airport (LGAV)
Time Latitude Longitude Altitude Speed Heading
2026-05-08 02:22 33.64124 -84.42635 1008 ft 0 kts 90°
2026-05-08 02:36 33.64124 -84.42651 1009 ft 2 kts 90°
2026-05-08 02:37 33.64124 -84.42670 1009 ft 2 kts 97°
2026-05-08 02:37 33.64128 -84.42688 1010 ft 2 kts 115°
2026-05-08 02:37 33.64136 -84.42704 1010 ft 2 kts 129°
2026-05-08 02:37 33.64147 -84.42718 1011 ft 2 kts 144°
2026-05-08 02:38 33.64160 -84.42727 1011 ft 2 kts 158°
2026-05-08 02:38 33.64175 -84.42732 1011 ft 2 kts 173°
2026-05-08 02:38 33.64184 -84.42733 1011 ft 1 kts 181°
2026-05-08 02:38 33.64187 -84.42733 1011 ft 0 kts 181°
2026-05-08 02:39 33.64186 -84.42733 1011 ft 0 kts 181°
2026-05-08 02:40 33.64177 -84.42733 1011 ft 2 kts 181°
2026-05-08 02:40 33.64146 -84.42733 1011 ft 5 kts 180°
2026-05-08 02:40 33.64105 -84.42732 1011 ft 6 kts 179°
2026-05-08 02:41 33.64058 -84.42731 1011 ft 7 kts 179°
2026-05-08 02:41 33.64005 -84.42730 1011 ft 8 kts 180°
2026-05-08 02:41 33.63953 -84.42731 1012 ft 7 kts 182°
2026-05-08 02:41 33.63891 -84.42732 1012 ft 8 kts 180°
2026-05-08 02:42 33.63823 -84.42732 1012 ft 10 kts 180°
2026-05-08 02:42 33.63745 -84.42732 1011 ft 11 kts 180°
2026-05-08 02:42 33.63681 -84.42722 1011 ft 9 kts 154°
2026-05-08 02:42 33.63657 -84.42643 1009 ft 12 kts 91°
2026-05-08 02:43 33.63656 -84.42522 1005 ft 15 kts 90°
2026-05-08 02:43 33.63657 -84.42374 1002 ft 17 kts 90°
2026-05-08 02:43 33.63658 -84.42208 996 ft 20 kts 90°
2026-05-08 02:43 33.63656 -84.42020 990 ft 22 kts 90°
2026-05-08 02:44 33.63656 -84.41809 982 ft 24 kts 90°
2026-05-08 02:44 33.63657 -84.41645 979 ft 18 kts 90°
2026-05-08 02:44 33.63656 -84.41482 975 ft 19 kts 91°
2026-05-08 02:44 33.63656 -84.41317 971 ft 19 kts 90°
2026-05-08 02:45 33.63657 -84.41157 969 ft 18 kts 89°
2026-05-08 02:45 33.63658 -84.41007 967 ft 17 kts 89°
2026-05-08 02:45 33.63657 -84.40887 965 ft 12 kts 91°
2026-05-08 02:45 33.63655 -84.40799 963 ft 8 kts 100°
2026-05-08 02:46 33.63618 -84.40749 962 ft 7 kts 161°
2026-05-08 02:46 33.63567 -84.40741 962 ft 6 kts 178°
2026-05-08 02:46 33.63504 -84.40750 962 ft 10 kts 206°
2026-05-08 02:46 33.63472 -84.40839 964 ft 18 kts 266°
2026-05-08 02:47 33.63470 -84.41163 969 ft 66 kts 270°
2026-05-08 02:47 33.63468 -84.41949 988 ft 119 kts 270°
2026-05-08 02:47 33.63467 -84.43156 1017 ft 163 kts 270°
2026-05-08 02:47 33.63460 -84.44656 1187 ft 187 kts 270°
2026-05-08 02:48 33.63437 -84.46284 1660 ft 194 kts 271°
2026-05-08 02:48 33.63439 -84.48088 1942 ft 209 kts 272°
2026-05-08 02:48 33.63469 -84.50089 2220 ft 226 kts 278°
2026-05-08 02:48 33.64031 -84.52010 2632 ft 232 kts 308°
2026-05-08 02:49 33.65240 -84.53571 3010 ft 234 kts 316°
2026-05-08 02:49 33.66557 -84.55047 3343 ft 241 kts 319°
2026-05-08 02:49 33.67928 -84.56502 3880 ft 239 kts 320°
2026-05-08 02:49 33.69459 -84.57713 4444 ft 238 kts 336°
2026-05-08 02:50 33.71309 -84.58144 4902 ft 245 kts 354°
2026-05-08 02:50 33.73267 -84.58158 5248 ft 252 kts 356°
2026-05-08 02:50 33.75253 -84.58125 5743 ft 253 kts 355°
2026-05-08 02:50 33.77209 -84.58094 6162 ft 255 kts 354°
2026-05-08 02:51 33.79244 -84.58067 6574 ft 258 kts 353°
2026-05-08 02:51 33.81224 -84.57790 6954 ft 270 kts
2026-05-08 02:51 33.83148 -84.56815 7356 ft 279 kts 21°
2026-05-08 02:51 33.85004 -84.55581 7769 ft 282 kts 22°
2026-05-08 02:52 33.86847 -84.54318 8144 ft 284 kts 22°
2026-05-08 02:52 33.88703 -84.53055 8522 ft 286 kts 22°
2026-05-08 02:52 33.90619 -84.51765 8888 ft 289 kts 21°
2026-05-08 02:52 33.92619 -84.50420 9285 ft 291 kts 21°
2026-05-08 02:53 33.94638 -84.49068 9657 ft 294 kts 20°
2026-05-08 02:53 33.96632 -84.47740 10084 ft 298 kts 20°
2026-05-08 02:53 33.98609 -84.46422 10654 ft 299 kts 20°
2026-05-08 02:53 34.00581 -84.45107 11191 ft 301 kts 20°
2026-05-08 02:54 34.02551 -84.43792 11727 ft 303 kts 20°
2026-05-08 02:54 34.04541 -84.42460 12254 ft 305 kts 20°
2026-05-08 02:54 34.06499 -84.41151 12787 ft 307 kts 20°
2026-05-08 02:54 34.08436 -84.39856 13281 ft 309 kts 20°
2026-05-08 02:55 34.10389 -84.38549 13806 ft 310 kts 20°
2026-05-08 02:55 34.14224 -84.35977 14725 ft 316 kts 19°
2026-05-08 02:55 34.16163 -84.34676 15172 ft 320 kts 19°
2026-05-08 02:56 34.18185 -84.33325 15606 ft 324 kts 19°
2026-05-08 02:56 34.20216 -84.31963 16088 ft 327 kts 19°
2026-05-08 02:56 34.22324 -84.30544 16544 ft 330 kts 18°
2026-05-08 02:56 34.24419 -84.29132 17006 ft 333 kts 18°
2026-05-08 02:57 34.26540 -84.27708 17472 ft 336 kts 18°
2026-05-08 02:57 34.28748 -84.26425 17881 ft 331 kts
2026-05-08 02:57 34.31019 -84.25598 18310 ft 323 kts 360°
2026-05-08 02:57 34.33338 -84.25031 18782 ft 322 kts 358°
2026-05-08 02:58 34.35620 -84.24519 19271 ft 322 kts 357°
2026-05-08 02:58 34.37950 -84.23997 19687 ft 326 kts 358°
2026-05-08 02:58 34.40307 -84.23461 20087 ft 329 kts 357°
2026-05-08 02:58 34.42693 -84.22911 20570 ft 330 kts 357°
2026-05-08 02:59 34.45064 -84.22359 20991 ft 332 kts 357°
2026-05-08 02:59 34.47472 -84.21797 21358 ft 336 kts 357°
2026-05-08 02:59 34.49881 -84.21233 21765 ft 338 kts 357°
2026-05-08 02:59 34.52323 -84.20659 22136 ft 340 kts 357°
2026-05-08 03:00 34.54787 -84.20081 22532 ft 342 kts 357°
2026-05-08 03:00 34.57199 -84.19514 22888 ft 344 kts 357°
2026-05-08 03:00 34.59696 -84.18926 23236 ft 347 kts 356°
2026-05-08 03:00 34.62184 -84.18339 23580 ft 349 kts 356°
2026-05-08 03:01 34.64729 -84.17741 23946 ft 351 kts 356°
2026-05-08 03:01 34.67246 -84.17147 24288 ft 353 kts 356°
2026-05-08 03:01 34.69822 -84.16541 24597 ft 356 kts 356°
2026-05-08 03:01 34.72380 -84.15939 24895 ft 359 kts 356°
2026-05-08 03:02 34.74988 -84.15321 25248 ft 361 kts 356°
2026-05-08 03:02 34.77602 -84.14682 25591 ft 364 kts 357°
2026-05-08 03:02 34.80232 -84.13961 25873 ft 369 kts 358°
2026-05-08 03:02 34.82883 -84.13213 26193 ft 371 kts 357°
2026-05-08 03:03 34.85587 -84.12452 26428 ft 375 kts 357°
2026-05-08 03:03 34.88290 -84.11697 26694 ft 378 kts 357°
2026-05-08 03:03 34.91013 -84.10934 26987 ft 379 kts 357°
2026-05-08 03:03 34.93737 -84.10174 27252 ft 382 kts 356°
2026-05-08 03:04 34.96517 -84.09397 27557 ft 383 kts 356°
2026-05-08 03:04 34.99289 -84.08624 27812 ft 386 kts 356°
2026-05-08 03:04 35.02062 -84.07851 28047 ft 389 kts 356°
2026-05-08 03:04 35.04857 -84.07070 28344 ft 390 kts 355°
2026-05-08 03:05 35.07607 -84.06300 28628 ft 391 kts 355°
2026-05-08 03:05 35.10419 -84.05518 28879 ft 393 kts 355°
2026-05-08 03:05 35.13106 -84.04764 29134 ft 394 kts 355°
2026-05-08 03:05 35.15844 -84.03998 29387 ft 396 kts 355°
2026-05-08 03:06 35.18550 -84.03242 29632 ft 397 kts 355°
2026-05-08 03:06 35.21398 -84.02451 29885 ft 399 kts 355°
2026-05-08 03:06 35.24222 -84.01657 30177 ft 400 kts 355°
2026-05-08 03:06 35.27090 -84.00854 30385 ft 402 kts 355°
2026-05-08 03:07 35.29905 -84.00065 30679 ft 402 kts 355°
2026-05-08 03:07 35.32794 -83.99250 30927 ft 403 kts 355°
2026-05-08 03:07 35.35619 -83.98455 31167 ft 404 kts 354°
2026-05-08 03:07 35.38452 -83.97658 31382 ft 406 kts 354°
2026-05-08 03:08 35.41377 -83.96837 31531 ft 409 kts 355°
2026-05-08 03:08 35.44202 -83.96043 31759 ft 410 kts 354°
2026-05-08 03:08 35.47008 -83.95249 31992 ft 411 kts 354°
2026-05-08 03:08 35.49990 -83.94407 32194 ft 413 kts 354°
2026-05-08 03:09 35.52983 -83.93559 32443 ft 413 kts 354°
2026-05-08 03:09 35.55901 -83.92735 32610 ft 415 kts 354°
2026-05-08 03:09 35.58745 -83.91937 32747 ft 418 kts 354°
2026-05-08 03:09 35.61638 -83.91117 32976 ft 418 kts 354°
2026-05-08 03:10 35.64477 -83.90311 33179 ft 419 kts 353°
2026-05-08 03:10 35.67321 -83.89504 33364 ft 420 kts 354°
2026-05-08 03:10 35.70210 -83.88688 33558 ft 421 kts 354°
2026-05-08 03:10 35.73079 -83.87873 33754 ft 422 kts 353°
2026-05-08 03:11 35.75953 -83.86982 33984 ft 429 kts 357°
2026-05-08 03:11 35.78870 -83.85841 34192 ft 439 kts
2026-05-08 03:11 35.81770 -83.84441 34386 ft 450 kts
2026-05-08 03:11 35.84619 -83.82780 34586 ft 460 kts 10°
2026-05-08 03:12 35.87480 -83.80871 34744 ft 466 kts 12°
2026-05-08 03:12 35.90359 -83.78878 34866 ft 469 kts 12°
2026-05-08 03:12 35.93247 -83.76868 34999 ft 471 kts 12°
2026-05-08 03:12 35.96101 -83.74882 35204 ft 471 kts 12°
2026-05-08 03:13 35.99008 -83.72868 35362 ft 472 kts 12°
2026-05-08 03:13 36.01906 -83.70864 35584 ft 471 kts 12°
2026-05-08 03:13 36.04801 -83.68867 35781 ft 471 kts 12°
2026-05-08 03:13 36.07682 -83.66885 35919 ft 472 kts 12°
2026-05-08 03:14 36.10606 -83.64871 36053 ft 473 kts 12°
2026-05-08 03:14 36.13492 -83.62882 36210 ft 474 kts 12°
2026-05-08 03:14 36.16386 -83.60885 36297 ft 476 kts 12°
2026-05-08 03:14 36.19318 -83.58860 36420 ft 477 kts 12°
2026-05-08 03:15 36.22263 -83.56818 36652 ft 476 kts 12°
2026-05-08 03:15 36.25165 -83.54808 36777 ft 477 kts 12°
2026-05-08 03:15 36.28127 -83.52756 36913 ft 478 kts 12°
2026-05-08 03:15 36.31066 -83.50719 37039 ft 479 kts 12°
2026-05-08 03:16 36.34026 -83.48667 37120 ft 481 kts 12°
2026-05-08 03:16 36.36948 -83.46639 37242 ft 482 kts 12°
2026-05-08 03:16 36.39930 -83.44563 37377 ft 482 kts 12°
2026-05-08 03:16 36.42921 -83.42478 37557 ft 482 kts 12°
2026-05-08 03:17 36.45892 -83.40408 37691 ft 482 kts 12°
2026-05-08 03:17 36.48881 -83.38323 37807 ft 483 kts 12°
2026-05-08 03:17 36.51868 -83.36243 37888 ft 484 kts 12°
2026-05-08 03:18 36.57845 -83.32069 37962 ft 488 kts 13°
2026-05-08 03:18 36.63822 -83.27887 38002 ft 491 kts 13°
2026-05-08 03:19 36.69759 -83.23717 38162 ft 491 kts 13°
2026-05-08 03:19 36.75747 -83.19508 38315 ft 491 kts 13°
2026-05-08 03:20 36.81681 -83.15332 38459 ft 492 kts 13°
2026-05-08 03:20 36.87657 -83.11118 38555 ft 495 kts 14°
2026-05-08 03:20 36.90631 -83.08811 38554 ft 506 kts 19°
2026-05-08 03:21 36.93498 -83.06206 38605 ft 517 kts 24°
2026-05-08 03:21 36.98884 -82.99979 38726 ft 538 kts 35°
2026-05-08 03:21 37.01323 -82.96396 38829 ft 546 kts 40°
2026-05-08 03:22 37.03650 -82.92615 38899 ft 549 kts 42°
2026-05-08 03:22 37.08253 -82.84998 39014 ft 549 kts 41°
2026-05-08 03:23 37.12870 -82.77322 39139 ft 551 kts 41°
2026-05-08 03:23 37.17488 -82.69573 39239 ft 552 kts 42°
2026-05-08 03:24 37.22090 -82.61834 39311 ft 553 kts 43°
2026-05-08 03:24 37.26677 -82.54106 39443 ft 553 kts 42°
2026-05-08 03:24 37.28978 -82.50226 39554 ft 552 kts 42°
2026-05-08 03:25 37.31279 -82.46348 39596 ft 552 kts 43°
2026-05-08 03:25 37.35862 -82.38605 39677 ft 554 kts 43°
2026-05-08 03:26 37.40499 -82.30747 39789 ft 554 kts 43°
2026-05-08 03:26 37.45131 -82.22882 39806 ft 554 kts 44°
2026-05-08 03:27 37.50046 -82.15529 39822 ft 542 kts 34°
2026-05-08 03:27 37.55612 -82.09264 39931 ft 524 kts 24°
2026-05-08 03:28 37.61536 -82.04063 39946 ft 516 kts 20°
2026-05-08 03:28 37.67492 -81.99057 40011 ft 516 kts 21°
2026-05-08 03:29 37.73444 -81.93988 40056 ft 518 kts 21°
2026-05-08 03:29 37.79416 -81.88851 40085 ft 518 kts 21°
2026-05-08 03:30 37.88353 -81.81127 40145 ft 520 kts 22°
2026-05-08 03:30 37.94288 -81.75982 40270 ft 518 kts 22°